Content
SEND FEEDBACK

Daily
Averages
Monthly
Summary
United States of America

ROCK HILL, NEW YORK


Home > North America > United States > New York
Elevation: 1260 feet     Latitude: 41 35N     Longitude: 074 37W

WEATHER
 
SELECT A DAY
Number of Records: 454,653;   Date Range: 1/1/95 - 12/18/14
 
SHARE

PRINT THIS DATA

[ ← Previous Day ]
WEATHER ALMANAC - DECEMBER 22, 2013
[ Next Day → ]
[ °C ]   °F
Weather ElementAverageHighLow
Temperature55 °F59 °F (2:55 pm)48.2 °F (12:35 am)
Dewpoint49.9 °F53.6 °F (7:35 am)44.6 °F (12:35 am)
Humidity83.1 %93 % (1:35 am)77 % (2:55 pm)
Barometer29.86 in29.96 in (9:55 pm)29.76 in (5:15 am)
Wind Speed7.3 mph16.1 mph (6:35 am)
Wind Gust26.5 mph (6:35 am)
Weather ElementAverage
Visibility7.7 mi
Wind DirectionSSW (193.9 °)

Weather ElementTotal
Precipitation0.11 in
Heating Degree Days11.4 (Base 65)
Growing Degree Days3.6 (Base 50)
Averaged from 71 records on December 22, 2013
WEATHER CONDITIONS BREAKOUT
WIND DIRECTION BREAKOUT
WEATHER BY HOUR - DECEMBER 22, 2013
[ °C ]   °F
Local TimeTemperatureDewpointHumidityBarometerVisibilityWind DirectionWind SpeedGust SpeedPrecipitationEventsConditions
12:35 AM48.2 °F44.6 °F87 %29.87 in8.0 miSSW (200°)5.8 mphMostly Cloudy
12:55 AM48.2 °F44.6 °F87 %29.87 in8.0 miSouth (190°)5.8 mphMostly Cloudy
1:15 AM48.2 °F44.6 °F87 %29.84 in5.0 miSouth (170°)4.6 mphMostly Cloudy
1:35 AM48.2 °F46.4 °F93 %29.87 in5.0 miSSW (200°)5.8 mphOvercast
1:55 AM50.0 °F44.6 °F82 %29.83 in5.0 miSSE (160°)8.1 mphMostly Cloudy
2:15 AM48.2 °F44.6 °F87 %29.83 in0.5 miSouth (170°)4.6 mphOvercast
2:35 AM51.8 °F46.4 °F82 %29.83 in4.0 miSSW (210°)8.1 mphOvercast
2:55 AM51.8 °F46.4 °F82 %29.82 in4.0 miSSW (200°)5.8 mphOvercast
3:15 AM51.8 °F48.2 °F88 %29.83 in5.0 miSSW (210°)9.2 mphOvercast
3:35 AM51.8 °F48.2 °F88 %29.80 in5.0 miSouth (190°)10.4 mph16.1 mphOvercast
3:55 AM51.8 °F48.2 °F88 %29.80 in3.0 miSSW (210°)10.4 mphOvercast
4:15 AM53.6 °F48.2 °F82 %29.79 in3.0 miSSW (200°)9.2 mph0.01 inOvercast
4:35 AM53.6 °F48.2 °F82 %29.78 in1.5 miSouth (190°)9.2 mph0.01 inOvercast
4:55 AM53.6 °F50.0 °F88 %29.78 in2.0 miSW (220°)12.7 mph19.6 mph0.01 inOvercast
5:15 AM55.4 °F51.8 °F88 %29.76 in2.5 miSSW (210°)11.5 mph20.7 mphOvercast
5:35 AM55.4 °F51.8 °F88 %29.77 in3.0 miSSW (210°)12.7 mph19.6 mphOvercast
5:55 AM55.4 °F51.8 °F88 %29.78 in5.0 miSSW (210°)12.7 mph25.3 mphOvercast
6:15 AM55.4 °F51.8 °F88 %29.78 in5.0 miSSW (210°)13.8 mph25.3 mphOvercast
6:35 AM55.4 °F51.8 °F88 %29.80 in7.0 miSSW (210°)16.1 mph26.5 mphOvercast
6:55 AM57.2 °F51.8 °F82 %29.81 in9.0 miSSW (210°)13.8 mph21.9 mphOvercast
7:15 AM57.2 °F51.8 °F82 %29.81 in4.0 miSSW (210°)10.4 mph17.3 mph0.01 inOvercast
7:35 AM57.2 °F53.6 °F88 %29.80 in3.0 miSouth (190°)12.7 mph17.3 mph0.02 inOvercast
7:55 AM57.2 °F53.6 °F88 %29.80 in2.5 miSSW (210°)6.9 mph0.02 inOvercast
8:15 AM55.4 °F51.8 °F88 %29.81 in2.0 miSW (220°)9.2 mphOvercast
8:35 AM57.2 °F53.6 °F88 %29.84 in2.0 miSW (230°)8.1 mphOvercast
8:55 AM57.2 °F53.6 °F88 %29.84 in3.0 miWSW (240°)6.9 mphOvercast
9:15 AM57.2 °F53.6 °F88 %29.85 in5.0 miSW (230°)6.9 mphMostly Cloudy
9:35 AM57.2 °F53.6 °F88 %29.87 in7.0 miSW (230°)8.1 mphMostly Cloudy
9:55 AM57.2 °F53.6 °F88 %29.88 in10.0 miWSW (250°)9.2 mphMostly Cloudy
10:15 AM57.2 °F53.6 °F88 %29.91 in10.0 miWest (260°)10.4 mph0.01 inScattered Clouds
10:35 AM57.2 °F53.6 °F88 %29.91 in10.0 miWest (270°)9.2 mph19.6 mph0.01 inScattered Clouds
10:55 AM57.2 °F51.8 °F82 %29.90 in10.0 miWest (260°)5.8 mph0.01 inOvercast
11:15 AM57.2 °F51.8 °F82 %29.89 in10.0 miSW (220°)4.6 mphOvercast
11:35 AM57.2 °F51.8 °F82 %29.89 in10.0 miSW (230°)3.5 mphScattered Clouds
11:55 AM57.2 °F51.8 °F82 %29.86 in10.0 miSSE (150°)6.9 mphMostly Cloudy
12:15 PM57.2 °F51.8 °F82 %29.86 in10.0 miSouth (180°)9.2 mphScattered Clouds
12:35 PM57.2 °F51.8 °F82 %29.84 in10.0 miSouth (170°)10.4 mphScattered Clouds
12:55 PM57.2 °F51.8 °F82 %29.83 in10.0 miSouth (180°)9.2 mphMostly Cloudy
1:15 PM57.2 °F51.8 °F82 %29.81 in10.0 miSouth (170°)12.7 mphScattered Clouds
1:35 PM57.2 °F51.8 °F82 %29.79 in10.0 miSouth (180°)9.2 mphScattered Clouds
1:55 PM57.2 °F51.8 °F82 %29.78 in10.0 miSW (220°)4.6 mphScattered Clouds
2:15 PM57.2 °F51.8 °F82 %29.76 in10.0 miWSW (240°)5.8 mph17.3 mphClear
2:35 PM57.2 °F51.8 °F82 %29.83 in10.0 miWSW (240°)9.2 mph16.1 mphPartly Cloudy
2:55 PM59.0 °F51.8 °F77 %29.83 in10.0 miSSW (210°)12.7 mph18.4 mphClear
3:15 PM59.0 °F51.8 °F77 %29.83 in10.0 miSW (230°)6.9 mphClear
3:35 PM59.0 °F51.8 °F77 %29.85 in10.0 miSSW (210°)5.8 mphClear
3:55 PM57.2 °F51.8 °F82 %29.87 in10.0 miSW (220°)5.8 mphClear
4:15 PM57.2 °F51.8 °F82 %29.87 in10.0 miSSW (200°)3.5 mphClear
4:35 PM57.2 °F50.0 °F77 %29.88 in10.0 miCalmClear
4:55 PM55.4 °F48.2 °F77 %29.88 in10.0 miSouth (190°)4.6 mphClear
5:15 PM55.4 °F50.0 °F82 %29.89 in10.0 miSSW (200°)5.8 mphPartly Cloudy
5:35 PM55.4 °F50.0 °F82 %29.88 in10.0 miSouth (190°)4.6 mphClear
5:55 PM55.4 °F48.2 °F77 %29.89 in10.0 miSouth (180°)4.6 mphPartly Cloudy
6:15 PM55.4 °F48.2 °F77 %29.91 in10.0 miCalmScattered Clouds
6:35 PM55.4 °F48.2 °F77 %29.90 in10.0 miCalmMostly Cloudy
6:55 PM55.4 °F48.2 °F77 %29.92 in10.0 miSSW (210°)5.8 mphMostly Cloudy
7:15 PM55.4 °F48.2 °F77 %29.92 in10.0 miSSW (200°)8.1 mphPartly Cloudy
7:35 PM55.4 °F48.2 °F77 %29.91 in10.0 miSSW (200°)6.9 mphClear
7:55 PM55.4 °F48.2 °F77 %29.92 in10.0 miCalmClear
8:15 PM55.4 °F48.2 °F77 %29.93 in10.0 miSouth (190°)4.6 mphClear
8:35 PM53.6 °F48.2 °F82 %29.93 in10.0 miSouth (190°)4.6 mphClear
8:55 PM53.6 °F48.2 °F82 %29.94 in10.0 miSouth (180°)5.8 mphMostly Cloudy
9:15 PM53.6 °F48.2 °F82 %29.94 in10.0 miSouth (190°)6.9 mphMostly Cloudy
9:35 PM53.6 °F48.2 °F82 %29.94 in10.0 miSW (220°)3.5 mphScattered Clouds
9:55 PM53.6 °F48.2 °F82 %29.96 in10.0 miSSW (200°)5.8 mphClear
10:15 PM53.6 °F48.2 °F82 %29.96 in10.0 miSSW (200°)6.9 mphClear
10:35 PM53.6 °F48.2 °F82 %29.96 in10.0 miSSW (200°)8.1 mphClear
10:55 PM53.6 °F48.2 °F82 %29.96 in10.0 miSSW (200°)5.8 mphClear
11:15 PM53.6 °F48.2 °F82 %29.95 in10.0 miSouth (190°)4.6 mphClear
11:35 PM53.6 °F48.2 °F82 %29.94 in10.0 miSSW (200°)3.5 mphClear
11:55 PM53.6 °F48.2 °F82 %29.93 in10.0 miSSW (210°)4.6 mphClear
Hourly data recorded from KMSV, located miles away from Rock Hill, New York







STORIES FROM OUR PARTNERS